RH
56 68 72 64 56 55 53 50 47 43 43 43 43 49 59 66 69 72 71 67 64 62 60 57 54 50 47 46 45 45 44 43 42 42 42 41 40 41 41 41 40 38 35 32 29 27 26 25 26 27 27 28 26 25 27 28 30 30 30 35 34 30 28 30 32 31 27 26 26 27 30 27 20 21 21 20 19 19 19 19 21 23 26 28 31 30 28 29
55 65 70 66 61 58 57 57 54 49 47 45 43 44 49 55 59 61 60 60 59 59 57 53 50 49 48 47 45 44 42 40 39 39 39 38 39 39 38 36 33 30 28 26 25 25 25 25 27 27 26 25 23 23 22 21 23 23 25 30 28 26 24 24 27 24 20 21 20 19 20 19 16 15 16 15 14 14 13 14 18 19 19 20 23 23 22 22
55 68 70 67 64 59 56 58 57 55 51 47 46 46 46 48 49 50 49 49 49 49 49 47 45 43 42 41 41 40 38 38 37 37 37 37 36 35 31 29 27 25 24 24 25 25 25 26 27 26 23 20 18 19 18 17 18 17 20 23 22 21 20 20 22 19 18 17 14 13 13 13 13 12 12 12 12 10 9 11 15 19 19 18 20 20 19 18
53 65 66 66 65 58 54 55 56 55 53 49 48 48 48 46 45 45 44 43 43 43 42 41 39 37 36 36 37 37 37 38 38 37 35 33 31 27 25 24 23 23 23 23 23 23 23 23 23 20 18 16 14 14 13 14 15 14 17 18 16 16 16 16 16 15 16 14 12 12 11 10 10 11 11 11 11 8 9 12 14 16 17 18 18 17 19 17
47 54 55 60 61 54 51 53 53 51 50 48 47 47 47 45 44 43 43 42 41 40 38 36 34 32 32 32 33 34 37 39 35 31 28 26 25 23 22 22 21 21 20 20 20 20 19 19 18 16 14 12 11 12 11 12 12 12 13 13 12 13 13 13 13 14 14 12 11 10 9 9 9 10 10 10 10 8 8 10 11 11 11 12 12 11 15 17
47 51 47 49 51 47 45 47 47 47 47 46 45 44 43 43 43 41 40 39 37 35 33 32 32 31 31 31 32 32 33 32 28 23 22 21 21 21 19 19 19 18 18 17 17 17 16 15 14 12 11 9 9 10 10 11 11 11 9 9 12 12 11 10 11 12 13 12 10 9 9 9 9 9 9 8 8 8 8 8 8 9 8 9 11 10 12 14
48 49 43 42 44 43 43 43 44 45 45 43 42 41 40 39 39 36 34 33 32 32 33 33 33 32 32 32 31 28 25 22 20 18 18 19 19 18 17 17 17 16 16 15 15 14 13 12 11 9 9 8 9 10 9 9 10 10 8 8 10 10 9 9 9 10 11 11 9 9 9 9 9 8 7 7 7 7 8 7 8 8 8 9 10 10 10 12
47 45 41 41 42 43 43 43 44 44 43 42 40 39 38 38 37 36 34 33 33 33 34 34 34 32 30 27 24 22 20 19 18 17 17 18 17 16 16 16 15 14 14 13 12 11 10 10 9 9 8 9 10 9 9 9 8 9 9 8 8 8 9 9 9 10 10 10 9 9 8 8 9 8 7 7 7 7 7 7 7 8 8 8 9 9 9 10
44 41 39 39 39 39 39 41 42 42 41 39 39 40 41 41 39 39 38 37 35 33 33 32 30 27 23 20 20 19 18 18 17 17 17 17 16 15 15 14 13 12 12 11 11 10 9 9 8 8 8 8 8 8 9 9 9 10 9 8 8 8 9 8 8 9 9 9 9 9 8 8 8 9 8 7 7 7 7 8 8 8 8 8 9 10 10 10
39 37 37 36 34 34 34 38 41 41 41 39 37 39 40 40 39 38 38 36 34 32 30 28 25 22 19 19 20 19 18 18 18 18 17 16 15 14 12 12 11 11 11 10 10 9 9 9 8 8 8 8 8 8 9 9 10 10 9 9 8 8 8 8 8 9 9 9 10 9 9 8 9 9 9 8 8 9 9 9 9 9 10 10 10 10 10 11
36 34 35 34 33 32 31 36 41 40 39 38 36 34 33 33 33 34 33 32 30 29 27 24 22 20 20 20 19 19 18 17 17 17 16 15 13 12 11 10 10 11 11 9 9 9 9 9 9 8 9 9 9 9 9 10 10 9 9 9 8 8 8 8 8 9 10 10 10 10 10 9 10 11 10 9 9 11 11 11 11 11 10 10 10 10 10 10
36 32 32 32 32 31 29 31 36 36 33 33 32 30 28 27 27 27 27 27 26 25 24 22 20 20 20 20 18 18 16 16 16 15 15 14 12 11 11 9 9 9 10 9 9 9 9 9 9 8 9 9 9 9 10 10 10 9 9 9 9 9 8 9 9 10 11 10 11 11 11 10 11 12 11 11 11 12 13 12 12 11 11 11 11 12 12 11
35 31 31 31 29 28 28 29 30 31 30 29 28 27 27 25 25 24 24 24 23 22 21 20 20 19 19 20 18 16 15 14 14 14 13 12 11 11 10 9 9 8 9 9 9 9 9 9 9 9 9 9 8 10 11 10 10 10 10 10 10 10 11 11 10 11 11 11 12 12 11 10 12 12 12 12 13 13 13 13 12 12 12 12 12 12 13 13
33 30 30 30 29 27 28 29 28 28 28 28 27 26 26 25 24 24 23 22 22 21 20 19 19 18 18 19 17 16 15 14 13 13 12 12 11 11 10 9 9 8 8 9 9 9 9 9 10 10 10 10 10 11 11 10 10 10 10 12 13 13 13 12 11 11 11 12 13 13 13 11 11 13 13 13 13 13 13 13 13 13 12 12 13 13 13 13
33 30 28 28 29 27 25 27 27 25 25 25 24 24 23 22 22 22 21 21 20 19 18 18 17 18 19 18 17 15 14 13 13 12 11 11 11 11 11 10 9 8 8 8 9 9 9 10 10 10 11 11 11 12 11 11 11 12 13 14 15 15 14 13 12 12 12 13 13 14 13 11 11 12 13 14 14 14 14 14 13 13 13 14 14 15 15 15
34 30 28 29 30 29 25 24 24 24 23 23 22 21 20 19 18 18 18 18 18 18 18 18 18 18 19 18 16 14 13 13 12 11 11 10 10 10 10 9 9 8 8 8 9 9 10 10 10 11 11 11 11 12 13 14 14 16 17 15 14 15 15 14 14 14 13 13 13 14 13 12 11 13 15 15 15 15 15 14 14 14 15 16 17 17 17 18
35 31 31 31 31 31 27 25 25 24 23 23 22 21 20 19 18 18 18 18 18 18 19 20 20 18 18 16 14 13 12 12 11 10 9 9 9 9 9 9 9 9 9 8 9 10 11 11 11 11 11 11 11 12 15 15 15 17 18 15 15 14 15 16 15 15 14 14 14 14 14 14 13 15 19 17 15 15 16 17 16 16 18 19 20 20 20 20
34 33 33 33 32 32 31 29 27 26 25 24 24 23 22 21 20 20 20 20 20 20 20 20 19 19 19 15 12 12 11 11 9 9 8 8 8 9 9 10 9 9 9 10 10 10 10 11 11 11 11 12 12 13 16 16 15 17 17 16 15 14 14 15 16 16 15 15 16 15 15 15 14 18 21 17 15 17 17 19 19 19 21 21 22 23 23 23
35 34 33 32 32 32 33 32 30 28 28 28 26 25 24 23 22 22 22 21 22 23 22 21 19 19 18 14 11 11 10 9 9 8 8 8 9 9 9 9 9 9 9 10 10 10 11 10 12 12 12 14 16 16 15 15 15 16 16 16 15 14 13 14 17 18 16 17 17 16 16 15 15 19 20 17 17 18 19 20 21 22 23 24 25 25 25 25
36 34 32 31 31 32 33 32 30 28 28 29 27 27 27 26 25 25 23 22 22 22 21 20 18 15 14 12 12 11 10 9 9 9 9 9 9 9 9 9 9 9 9 10 11 12 12 11 12 12 13 15 17 16 14 13 14 14 15 16 16 15 14 14 18 19 18 18 16 15 16 15 15 19 19 17 18 20 20 21 22 23 24 25 26 27 27 27
38 36 34 32 31 32 32 32 30 28 28 29 27 28 28 25 24 25 23 22 20 18 17 16 14 13 12 11 11 10 10 9 9 10 9 9 9 8 8 8 9 9 10 11 12 12 12 12 12 12 13 13 14 13 13 13 14 15 16 16 15 17 16 16 19 20 19 19 17 15 16 15 16 19 18 18 20 21 22 23 23 24 24 25 27 28 28 29
38 39 37 34 32 31 32 33 31 29 29 28 26 26 25 22 22 21 18 18 17 15 14 13 12 12 11 11 10 10 10 10 10 10 10 10 9 9 9 8 8 10 11 11 12 12 13 13 13 13 12 13 14 14 14 15 16 16 17 17 17 18 18 18 21 20 19 19 17 15 16 15 16 18 18 19 20 22 23 23 24 25 25 26 27 28 29 30
39 40 39 36 34 32 32 32 32 31 29 28 27 25 22 20 18 17 15 16 16 14 13 12 12 12 11 12 11 11 11 11 11 11 10 10 9 9 10 9 8 9 10 10 10 12 14 14 14 13 13 14 14 15 16 17 17 17 17 18 19 19 20 20 21 20 19 18 16 17 18 16 17 19 19 20 21 22 23 24 25 25 26 27 28 29 30 31
40 40 39 37 34 33 32 32 32 31 29 27 25 23 21 18 15 15 14 14 15 14 13 14 14 14 13 13 13 12 12 12 11 11 11 10 10 10 10 10 10 10 11 11 11 12 12 13 14 14 14 14 14 15 17 17 17 18 19 20 20 20 20 19 19 18 17 17 19 20 18 16 18 19 19 21 21 22 24 24 25 26 27 29 30 30 31 32
40 39 39 37 34 33 31 30 29 28 28 25 23 22 20 17 14 13 13 14 16 16 16 16 15 15 15 13 14 14 13 12 12 11 11 10 10 10 11 11 11 11 12 13 13 12 12 14 15 15 15 15 16 16 17 18 17 17 20 21 20 19 19 18 18 19 18 18 21 20 18 17 18 19 20 22 22 23 25 26 26 28 29 30 31 31 32 33
40 39 38 37 34 32 30 29 27 27 27 23 20 20 18 16 13 11 12 15 16 17 19 19 17 17 16 15 15 15 15 14 13 11 11 11 12 12 12 12 11 12 14 14 13 13 14 15 15 16 16 16 18 18 18 18 17 17 20 20 19 18 19 19 20 22 21 18 19 19 20 19 18 19 21 23 23 24 26 27 28 29 32 33 34 34 34 36
39 38 38 36 34 31 30 30 27 26 25 22 19 18 17 15 12 11 14 15 15 18 20 19 19 18 17 16 15 14 16 15 13 12 12 11 12 12 12 12 13 14 15 15 14 15 16 16 15 16 16 16 17 18 18 18 17 19 21 20 19 19 20 20 20 22 21 20 19 19 21 21 19 21 23 23 24 26 27 29 31 33 36 38 39 40 41 42
38 37 37 36 33 31 30 30 28 27 25 21 19 17 17 15 11 12 14 14 15 19 20 19 18 17 15 15 14 13 14 13 13 14 13 12 12 13 12 13 13 13 15 15 14 16 17 16 16 16 15 15 17 18 19 18 18 19 20 20 20 20 21 21 21 22 22 23 22 19 23 25 22 24 27 27 29 32 34 35 36 37 39 40 40 41 42 44
36 35 36 36 34 31 30 30 30 28 24 21 19 17 17 13 11 13 13 11 14 17 19 18 17 16 15 15 13 12 13 12 13 14 13 12 12 13 13 14 14 14 15 15 15 16 17 17 16 17 17 16 18 19 19 20 20 21 22 22 22 22 22 23 23 24 26 30 29 25 27 30 28 31 34 33 34 37 37 35 34 34 35 36 36 37 37 38
33 35 37 37 35 32 30 31 30 27 23 21 20 18 15 12 12 14 11 10 14 16 17 17 16 15 14 13 12 12 13 12 13 13 13 13 12 13 14 15 16 16 17 18 17 17 19 20 19 19 19 19 19 21 22 23 23 23 24 23 24 25 25 27 27 29 32 33 31 27 27 28 27 28 31 30 30 31 30 29 29 30 32 33 34 35 36 37
31 34 37 36 34 30 30 30 28 25 23 21 19 16 14 13 13 12 9 11 15 16 16 16 15 15 13 13 13 12 13 13 13 13 13 13 13 13 14 16 16 16 18 19 19 19 20 21 21 22 23 21 21 22 25 27 27 28 28 27 30 29 27 29 28 30 32 29 25 22 22 22 22 24 26 25 24 25 26 27 28 29 30 31 33 35 37 40
30 32 35 35 32 28 29 29 27 25 22 19 17 14 14 14 12 10 9 12 15 14 14 16 15 14 14 14 13 13 14 14 13 14 14 13 14 15 15 16 16 17 17 16 17 18 19 20 21 23 24 24 25 25 28 32 32 31 29 27 28 26 24 25 22 23 25 22 20 19 20 19 20 23 24 23 23 24 25 26 26 28 30 32 36 39 42 45
30 33 35 35 32 28 27 27 26 24 20 16 14 13 13 12 11 12 11 11 14 15 15 16 14 13 14 14 12 13 15 15 13 15 17 16 17 18 18 18 18 19 17 17 18 17 18 22 25 27 30 32 32 29 29 28 24 23 21 19 21 21 26 29 25 23 24 21 17 17 20 20 19 24 26 24 25 26 25 26 28 31 33 35 39 42 45 47
31 34 36 35 31 28 27 26 24 20 16 14 13 12 11 10 11 14 13 11 14 15 15 16 14 13 14 13 13 14 15 15 15 14 15 17 17 19 19 18 19 19 17 19 21 21 25 30 33 33 32 32 29 25 22 18 15 16 15 15 17 19 26 31 26 24 25 21 16 15 18 19 23 30 30 27 28 28 28 30 33 35 37 39 41 43 45 46
32 35 37 35 29 25 24 23 19 15 13 13 12 11 11 10 10 12 14 13 14 14 15 16 14 13 14 14 15 16 15 15 16 14 14 16 17 18 18 19 20 21 23 27 30 31 32 32 32 29 24 21 20 18 16 14 14 16 14 14 18 18 21 24 22 23 27 27 23 18 18 22 29 35 33 31 34 33 33 35 37 40 41 42 44 43 44 44
33 35 34 29 25 22 21 20 16 13 13 13 12 12 12 12 12 12 16 17 16 15 15 16 16 14 15 15 15 16 16 16 15 16 16 16 18 19 21 25 28 30 32 35 34 33 30 25 21 21 17 15 15 14 14 15 15 15 14 16 19 17 18 23 24 25 28 33 30 22 21 26 31 37 39 39 42 42 40 43 45 47 47 48 48 46 44 42
34 34 29 23 21 19 17 16 14 12 13 12 12 13 12 14 15 15 17 19 17 17 15 15 17 16 14 16 16 15 17 17 16 16 16 18 24 29 31 34 35 33 32 29 26 24 22 17 14 16 16 13 14 15 17 19 18 15 15 16 17 17 19 25 31 32 33 37 32 22 22 23 23 37 50 52 52 53 52 53 53 51 50 50 47 45 43 41
32 29 24 19 18 16 14 13 13 13 12 11 12 14 14 15 17 18 20 20 19 18 15 14 17 16 15 16 16 15 16 17 18 20 23 28 34 37 36 33 30 26 23 20 17 15 15 16 15 15 15 13 15 17 17 20 20 17 17 18 19 22 24 26 31 35 37 37 30 24 25 26 30 46 60 61 59 60 61 59 56 51 49 48 46 45 44 42
28 24 21 18 15 14 12 12 12 12 12 11 12 14 15 17 20 22 23 22 20 18 15 15 16 16 16 17 16 17 20 24 27 31 33 34 34 33 30 25 22 18 15 13 12 11 14 18 16 14 13 12 15 16 15 16 19 19 21 22 22 25 26 25 25 28 35 38 35 35 32 32 45 58 62 64 64 62 61 58 54 51 49 49 48 46 43 39
23 21 20 16 14 13 11 11 12 12 12 12 13 14 17 20 22 24 23 22 21 19 16 16 16 17 18 20 23 26 30 33 34 33 31 27 26 26 23 19 16 14 12 12 12 11 14 18 17 13 12 12 13 14 11 13 17 19 22 25 28 27 24 23 22 26 41 45 43 49 43 37 51 59 57 61 62 60 59 57 55 53 51 49 46 43 40 37
19 19 17 14 13 11 11 11 12 11 11 13 14 17 21 22 22 25 24 22 22 20 19 19 21 23 26 29 32 33 32 31 29 25 22 20 20 21 20 17 16 15 13 13 13 13 14 16 18 16 14 12 12 13 12 14 17 19 22 25 29 29 27 29 26 27 42 45 44 55 52 44 54 58 57 63 65 65 67 65 62 55 49 46 41 39 40 40
18 17 15 13 11 11 11 12 13 12 12 14 17 20 24 23 21 22 23 22 22 23 25 27 29 32 34 35 33 29 25 22 21 19 16 16 17 17 17 18 18 16 15 14 14 14 14 15 18 20 16 13 14 15 14 17 19 21 25 27 27 28 31 37 34 31 40 40 37 47 51 55 68 69 66 71 70 69 71 66 59 52 45 44 42 42 44 44
18 15 13 12 11 11 12 12 13 14 15 18 20 22 23 22 20 21 23 25 28 30 31 33 36 37 35 31 25 20 17 16 16 15 13 14 16 16 17 19 18 16 16 15 15 14 15 18 21 19 15 13 16 18 18 21 24 26 28 31 30 30 34 39 38 41 47 44 41 50 54 63 76 73 70 72 66 65 68 63 55 50 47 47 47 49 50 48
15 14 13 12 11 12 13 13 13 14 16 18 19 20 22 23 24 27 29 32 35 35 35 35 35 31 26 21 17 14 14 13 13 13 12 12 14 17 18 18 17 16 18 18 18 17 16 18 20 18 16 16 17 19 20 22 24 24 27 33 36 38 40 41 40 45 53 54 58 69 68 65 66 63 63 62 57 62 68 62 56 54 53 52 52 54 56 55
13 14 13 12 12 12 14 15 15 14 15 17 18 20 23 27 31 35 36 38 40 38 33 30 27 22 17 15 14 13 12 11 11 12 12 11 13 17 18 18 17 18 19 18 18 18 16 16 18 19 20 21 19 20 21 22 22 22 26 37 44 44 42 42 44 50 56 59 64 73 74 65 55 51 49 47 50 61 62 54 52 52 50 52 56 60 60 56
12 13 13 13 12 13 15 15 14 13 15 17 21 24 27 31 35 38 39 39 37 33 26 20 18 16 13 12 12 11 11 10 11 12 13 13 13 14 17 18 17 19 20 18 16 18 17 16 19 21 21 22 22 21 20 21 23 24 31 44 49 44 41 45 53 59 62 65 64 60 63 62 51 43 42 42 49 58 53 47 45 43 41 46 52 55 53 49
12 13 14 14 13 13 14 15 16 17 21 24 27 30 32 33 35 37 36 32 27 23 18 15 14 14 12 11 12 11 10 10 12 14 15 15 13 14 16 17 17 18 19 17 17 19 17 16 22 24 20 19 20 19 18 20 26 32 39 46 46 45 49 54 60 63 64 69 65 52 52 55 47 42 45 48 53 54 47 43 40 36 37 44 46 43 40 39
12 14 14 14 14 14 15 19 24 27 29 31 31 33 34 34 34 31 27 22 18 15 13 12 13 13 12 12 11 10 10 10 13 17 17 16 15 15 15 16 17 17 16 17 19 20 17 19 25 26 21 18 18 19 20 21 26 35 40 41 42 49 57 59 61 62 63 67 64 53 50 49 46 48 54 56 55 51 44 39 35 32 35 39 39 35 31 31
13 13 13 14 17 20 23 28 31 32 33 33 33 35 34 31 28 24 20 17 13 10 10 11 13 14 12 10 9 10 11 10 12 17 19 18 19 18 16 18 18 16 15 18 21 21 21 24 27 26 23 20 19 21 24 26 29 35 40 42 44 50 56 59 59 56 55 57 55 49 48 47 46 53 60 57 49 43 38 34 31 31 35 35 33 33 32 32
11 12 15 19 24 29 32 34 34 33 33 32 32 31 28 23 20 18 17 16 11 9 10 11 13 15 13 10 10 12 13 13 14 16 17 18 19 18 18 19 19 17 17 20 21 21 22 24 26 26 24 23 24 27 29 33 32 32 38 45 47 48 49 52 53 51 50 51 47 47 53 53 49 52 56 53 46 42 41 38 34 34 36 36 35 37 38 39
13 17 23 27 31 34 34 34 34 32 30 29 27 24 21 17 16 15 15 15 13 12 13 13 13 15 14 11 12 14 15 17 17 17 18 18 19 19 20 21 21 20 20 22 24 23 22 23 24 28 30 28 27 30 32 32 31 36 45 48 46 45 44 43 43 46 53 57 55 57 61 57 49 47 46 44 44 49 51 46 40 38 40 41 42 43 45 46
22 26 30 32 34 35 34 32 31 29 27 25 22 20 17 15 15 14 13 15 15 14 15 15 14 14 13 11 14 16 18 20 20 21 22 22 20 20 21 21 21 20 20 23 25 25 26 26 26 30 34 29 26 31 33 28 31 48 57 50 41 40 40 38 39 42 49 57 62 64 59 51 46 46 45 44 46 53 54 46 41 45 48 48 48 50 51 54